[[{"header":{"parameterUnit":"m.s-1","parameterCategory":1,"la1":30.2991,"la2":30.254,"lo1":-89.0895,"lo2":-89.0444,"dy":0.0017,"dx":0.0017,"nx":28,"ny":28,"refTime":"2025-05-29T21:00:00:Z","depth":0,"parameterNumber":2,"parameterNumberName":"U-component_of_WINDS"},"data":[0,0,0,0,0,0,0,0,0,0,0,0,0,0,0,0,0,0,0,0,0,0,0,0,0,0,0,0,0,0,0,0,0,0,0,0,0,0,0,0,0,0,0,0,0,0,0,0,0,0,0,0,0,0,0,0,0,0,-1.3337,-1.3337,0,-1.3273,-1.3272,-1.3272,-1.325,-1.325,-1.325,-1.3251,-1.3181,-1.3179,-1.3177,0,0,0,0,0,0,0,0,0,0,0,0,0,-1.3437,-1.3435,-1.3337,-1.3337,-1.3336,-1.3273,-1.3272,-1.3272,-1.325,-1.325,-1.325,-1.3251,-1.3182,-1.3179,-1.3177,0,0,0,0,0,0,0,0,0,0,0,0,0,-1.3385,-1.3435,-1.3337,-1.3317,-1.3315,-1.3274,-1.3272,-1.3271,-1.325,-1.325,-1.325,-1.3251,-1.3183,-1.318,-1.3176,-1.3149,0,0,-1.3167,-1.3166,0,0,0,0,0,0,0,0,-1.3388,-1.3382,-1.3321,-1.3319,-1.3316,-1.327,-1.3282,-1.323,-1.325,-1.3274,-1.3251,-1.3251,-1.321,-1.3205,-1.3192,-1.3146,-1.3143,-1.3167,-1.3165,-1.3163,-1.3162,0,0,0,0,0,0,0,-1.3392,-1.3384,-1.3312,-1.332,-1.3317,-1.331,-1.3303,-1.3272,-1.3241,-1.3272,-1.327,-1.3263,-1.3209,-1.3195,-1.319,-1.3142,-1.3167,-1.3164,-1.3162,-1.3161,-1.307,-1.3069,0,0,0,0,0,0,-1.3399,-1.3388,-1.3314,-1.331,-1.3354,-1.3308,-1.3301,-1.3284,-1.3241,-1.3235,-1.3263,-1.3263,-1.32,-1.3194,-1.3187,-1.3152,-1.3163,-1.316,-1.3159,-1.307,-1.3069,-1.3069,0,0,0,0,0,0,-1.3402,-1.3393,-1.3316,-1.3348,-1.3338,-1.3306,-1.3288,-1.3283,-1.3269,-1.3234,-1.3228,-1.3255,-1.32,-1.3192,-1.3159,-1.3149,-1.3159,-1.3156,-1.3071,-1.307,-1.3069,-1.3082,0,0,0,0,0,0,-1.3405,-1.3394,-1.3384,-1.3348,-1.3336,-1.329,-1.3287,-1.3281,-1.3264,-1.3263,-1.3225,-1.3219,-1.32,-1.3164,-1.3156,-1.3145,-1.3154,-1.3071,-1.307,-1.3069,-1.3082,-1.3081,-1.3081,0,0,0,0,0,-1.3408,-1.339,-1.3384,-1.3375,-1.3324,-1.329,-1.3283,-1.3262,-1.3263,-1.3252,-1.323,-1.322,-1.3152,-1.3161,-1.3151,-1.314,-1.3072,-1.3071,-1.307,-1.3082,-1.3081,-1.3081,0,0,0,0,0,0,-1.3424,-1.3384,-1.3378,-1.3347,-1.3322,-1.3286,-1.3272,-1.3262,-1.3235,-1.3235,-1.321,-1.3201,-1.317,-1.3152,-1.3162,-1.3111,-1.3111,-1.3108,-1.3124,-1.3123,-1.3122,-1.3127,-1.3151,0,0,0,0,0,-1.3424,-1.3401,-1.3367,-1.3343,-1.3331,-1.3304,-1.3288,-1.3275,-1.3247,-1.3236,-1.3211,-1.3184,-1.3157,-1.3139,-1.3111,-1.3079,-1.307,-1.3067,-1.3066,-1.3066,-1.3063,-1.3044,-1.3042,-1.3065,-1.3065,-1.3065,0,0,-1.3423,-1.3399,-1.3386,-1.3346,-1.3325,-1.33,-1.3295,-1.3269,-1.3251,-1.3232,-1.32,-1.3181,-1.3148,-1.3116,-1.31,-1.3099,-1.3055,-1.3064,-1.3064,-1.3062,-1.3043,-1.304,-1.3039,-1.3064,-1.3064,-1.3064,0,0,-1.341,-1.339,-1.3367,-1.3347,-1.3316,-1.3298,-1.3292,-1.3258,-1.3245,-1.3212,-1.3198,-1.3174,-1.3127,-1.3105,-1.3087,-1.3066,-1.3055,-1.3057,-1.3054,-1.3036,-1.3034,-1.3032,-1.3024,-1.3021,-1.3055,-1.3055,-1.3055,0,-1.3413,-1.3377,-1.3357,-1.3332,-1.3314,-1.3298,-1.3274,-1.3255,-1.3216,-1.3203,-1.3204,-1.3144,-1.3121,-1.3083,-1.3078,-1.3064,-1.3057,-1.3061,-1.3036,-1.3034,-1.3032,-1.3024,-1.3021,-1.3055,-1.3055,-1.3055,-1.3055,0,-1.3381,-1.3357,-1.3342,-1.3306,-1.3287,-1.3263,-1.3238,-1.3221,-1.3209,-1.3191,-1.3157,-1.3129,-1.3096,-1.3086,-1.3073,-1.3045,-1.3046,-1.3041,-1.3041,-1.3031,-1.3022,-1.3019,-1.3056,-1.3056,-1.3056,-1.3056,0,0,-1.3375,-1.3329,-1.3324,-1.3308,-1.3272,-1.3252,-1.3227,-1.3195,-1.318,-1.3154,-1.3132,-1.3092,-1.3088,-1.3068,-1.3053,-1.3037,-1.3021,-1.3035,-1.3033,-1.3032,-1.2987,-1.299,-1.2987,-1.3014,-1.3013,-1.3013,-1.299,0,-1.3357,-1.3313,-1.3294,-1.3258,-1.3234,-1.3218,-1.3195,-1.3171,-1.3153,-1.3129,-1.3108,-1.3081,-1.3078,-1.3066,-1.3049,-1.3027,-1.3011,-1.3028,-1.2992,-1.2991,-1.3,-1.2983,-1.2986,-1.2965,-1.2986,-1.2986,-1.2985,0,-1.3329,-1.3304,-1.3266,-1.3233,-1.3222,-1.3203,-1.3172,-1.315,-1.3121,-1.3109,-1.3087,-1.3073,-1.3045,-1.3048,-1.3007,-1.3019,-1.3003,-1.299,-1.2988,-1.2983,-1.2987,-1.2977,-1.2958,-1.2955,-1.298,-1.2981,-1.2981,0,-1.3328,-1.3284,-1.3256,-1.3242,-1.3203,-1.319,-1.3173,-1.3145,-1.3127,-1.31,-1.3088,-1.3057,-1.304,-1.3016,-1.2994,-1.2998,-1.2956,-1.2957,-1.2944,-1.2944,-1.2935,-1.2936,-1.2913,-1.2926,-1.2926,-1.2926,-1.2926,0,-1.3309,-1.3286,-1.3255,-1.3237,-1.321,-1.3189,-1.3163,-1.3144,-1.3119,-1.3097,-1.308,-1.3059,-1.3031,-1.3006,-1.2989,-1.2958,-1.295,-1.2939,-1.2934,-1.294,-1.2941,-1.2928,-1.2929,-1.2925,-1.2926,-1.2926,-1.2926,0,-1.3303,-1.3281,-1.3249,-1.3215,-1.3206,-1.3188,-1.3158,-1.314,-1.3121,-1.3093,-1.3085,-1.3055,-1.3025,-1.3001,-1.2961,-1.2949,-1.2916,-1.2911,-1.2926,-1.2924,-1.2912,-1.2914,-1.288,-1.2874,-1.2892,-1.2892,-1.2892,0,-1.3292,-1.3274,-1.3238,-1.3223,-1.3206,-1.3181,-1.3163,-1.3141,-1.3123,-1.3088,-1.3074,-1.3043,-1.3017,-1.2969,-1.2943,-1.2912,-1.2906,-1.2897,-1.2901,-1.2907,-1.2905,-1.2906,-1.2904,-1.2896,-1.2896,-1.2896,-1.2896,0,-1.3274,-1.3264,-1.324,-1.3211,-1.3191,-1.3167,-1.3142,-1.313,-1.3103,-1.3083,-1.3053,-1.3033,-1.2993,-1.2961,-1.2928,-1.2909,-1.2897,-1.2895,-1.289,-1.2895,-1.2904,-1.2898,-1.2924,-1.2895,-1.2895,-1.2895,-1.2895,-1.2895,-1.3265,-1.3248,-1.322,-1.3193,-1.3173,-1.3151,-1.3132,-1.3111,-1.3086,-1.3052,-1.304,-1.3009,-1.2979,-1.2934,-1.2914,-1.2889,-1.2887,-1.2881,-1.2879,-1.2877,-1.2878,-1.2909,-1.2882,-1.2882,-1.2882,-1.2882,-1.2882,0,-1.3246,-1.3227,-1.3203,-1.317,-1.3148,-1.3141,-1.3113,-1.3095,-1.3068,-1.3043,-1.3018,-1.2982,-1.2952,-1.2924,-1.2892,-1.2877,-1.2871,-1.2869,-1.287,-1.2865,-1.2881,-1.2888,-1.2875,-1.2875,-1.2875,-1.2875,-1.2875,-1.2875,-1.3233,-1.3204,-1.3191,-1.3152,-1.3133,-1.3103,-1.3088,-1.3067,-1.3046,-1.3008,-1.2983,-1.2966,-1.2939,-1.2905,-1.2876,-1.2869,-1.2857,-1.2857,-1.2848,-1.2863,-1.2864,-1.2865,-1.2872,-1.2855,-1.2855,-1.2834,-1.2834,-1.2834]},{"header":{"parameterUnit":"m.s-1","parameterCategory":1,"la1":30.2991,"la2":30.254,"lo1":-89.0895,"lo2":-89.0444,"dy":0.0017,"dx":0.0017,"nx":28,"ny":28,"refTime":"2025-05-29T21:00:00:Z","depth":0,"parameterNumber":3,"parameterNumberName":"V-component_of_WINDS"},"data":[0,0,0,0,0,0,0,0,0,0,0,0,0,0,0,0,0,0,0,0,0,0,0,0,0,0,0,0,0,0,0,0,0,0,0,0,0,0,0,0,0,0,0,0,0,0,0,0,0,0,0,0,0,0,0,0,0,0,3.3705,3.3707,0,3.3925,3.3928,3.393,3.4021,3.402,3.402,3.402,3.4241,3.4247,3.4254,0,0,0,0,0,0,0,0,0,0,0,0,0,3.3357,3.3363,3.3704,3.3707,3.371,3.3925,3.3928,3.3931,3.4021,3.402,3.402,3.4019,3.4239,3.4247,3.4254,0,0,0,0,0,0,0,0,0,0,0,0,0,3.3535,3.3365,3.3704,3.3781,3.379,3.3924,3.3928,3.3932,3.4021,3.402,3.402,3.4019,3.4237,3.4246,3.4255,3.4328,0,0,3.4284,3.4288,0,0,0,0,0,0,0,0,3.3525,3.3548,3.3767,3.3776,3.3786,3.3945,3.3887,3.4064,3.4021,3.3933,3.402,3.4019,3.4143,3.416,3.4203,3.4338,3.4348,3.4285,3.4291,3.4295,3.4298,0,0,0,0,0,0,0,3.3513,3.3539,3.3792,3.377,3.3782,3.3803,3.3828,3.3921,3.4039,3.3941,3.3948,3.3973,3.4148,3.4193,3.4209,3.4351,3.4285,3.4293,3.4299,3.4303,3.4556,3.4557,0,0,0,0,0,0,3.3488,3.3528,3.3785,3.3798,3.3651,3.381,3.3837,3.3895,3.4038,3.406,3.3973,3.3976,3.4178,3.4198,3.4217,3.4311,3.4295,3.4304,3.4309,3.4555,3.4556,3.4557,0,0,0,0,0,0,3.348,3.351,3.3776,3.3665,3.3701,3.3817,3.388,3.3899,3.3945,3.4063,3.4084,3.3998,3.4178,3.4203,3.43,3.432,3.4308,3.4317,3.4554,3.4555,3.4557,3.4499,0,0,0,0,0,0,3.347,3.3507,3.3537,3.3665,3.3706,3.3856,3.3881,3.3904,3.3962,3.3968,3.4092,3.4112,3.4179,3.4285,3.4309,3.4333,3.4324,3.4552,3.4554,3.4556,3.45,3.4499,3.4498,0,0,0,0,0,3.3457,3.3511,3.3538,3.3568,3.3746,3.3857,3.388,3.3958,3.3963,3.3993,3.4069,3.4108,3.4314,3.4294,3.4322,3.4349,3.4551,3.4554,3.4556,3.4501,3.4499,3.4498,0,0,0,0,0,0,3.3381,3.3529,3.3561,3.3658,3.3744,3.3872,3.3913,3.3954,3.404,3.4041,3.4133,3.416,3.4248,3.4308,3.4284,3.4426,3.4436,3.4443,3.4384,3.4383,3.4382,3.4366,3.4332,0,0,0,0,0,3.3375,3.3454,3.3579,3.3653,3.3695,3.3796,3.3847,3.39,3.3992,3.4029,3.4112,3.4199,3.4283,3.4336,3.4421,3.4509,3.4537,3.4541,3.454,3.4538,3.4544,3.4595,3.4598,3.4565,3.4565,3.4565,0,0,3.3365,3.3456,3.35,3.364,3.3713,3.3791,3.3826,3.3908,3.3966,3.4041,3.4137,3.42,3.4303,3.4396,3.4441,3.4449,3.4559,3.4541,3.4539,3.4546,3.4597,3.46,3.4603,3.4566,3.4566,3.4566,0,0,3.3386,3.3463,3.3533,3.3605,3.3716,3.3782,3.3799,3.3921,3.3966,3.4064,3.4122,3.4191,3.4335,3.4406,3.4461,3.4507,3.4546,3.4532,3.4526,3.4574,3.4576,3.4579,3.4595,3.46,3.4537,3.4537,3.4537,0,3.3358,3.348,3.3563,3.3641,3.3701,3.3773,3.3843,3.3909,3.404,3.4079,3.4086,3.4267,3.4342,3.4451,3.4463,3.4505,3.4525,3.4518,3.457,3.4573,3.4577,3.4593,3.4599,3.4534,3.4535,3.4535,3.4535,0,3.344,3.3523,3.3566,3.3693,3.3757,3.3831,3.3923,3.3978,3.4024,3.4089,3.4187,3.4279,3.4383,3.4413,3.4458,3.4529,3.453,3.4552,3.4564,3.4576,3.4593,3.46,3.4531,3.4532,3.4533,3.4533,0,0,3.342,3.3591,3.3605,3.3663,3.3789,3.3855,3.3931,3.4034,3.4078,3.4166,3.4232,3.4351,3.4372,3.4434,3.4488,3.453,3.456,3.4548,3.4551,3.4546,3.4643,3.4625,3.4631,3.4587,3.4588,3.459,3.4634,0,3.3457,3.3599,3.3675,3.3784,3.3861,3.393,3.3996,3.408,3.4143,3.4216,3.4285,3.4368,3.439,3.4428,3.4473,3.4547,3.4581,3.4545,3.4647,3.465,3.462,3.464,3.4622,3.4659,3.4641,3.4642,3.4643,0,3.352,3.3608,3.3725,3.3842,3.3877,3.3936,3.4035,3.4105,3.4201,3.4244,3.4312,3.4366,3.4447,3.4452,3.4565,3.4539,3.4585,3.4628,3.4631,3.4644,3.4647,3.4652,3.4673,3.4678,3.4654,3.4653,3.4652,0,3.3492,3.364,3.3729,3.3776,3.3915,3.3954,3.4014,3.411,3.4166,3.4252,3.429,3.4384,3.4435,3.4506,3.4583,3.458,3.4688,3.47,3.4725,3.4723,3.4745,3.4742,3.4773,3.4774,3.4774,3.4774,3.4774,0,3.3526,3.3595,3.3718,3.3773,3.3851,3.3937,3.4012,3.4076,3.416,3.4228,3.4292,3.4353,3.4452,3.4525,3.4585,3.4669,3.4691,3.4727,3.4743,3.4722,3.4717,3.4753,3.4753,3.4776,3.4775,3.4775,3.4775,0,3.3509,3.3595,3.3696,3.3819,3.3852,3.3904,3.4009,3.4063,3.4129,3.4213,3.4238,3.4341,3.443,3.4514,3.4633,3.4674,3.4758,3.4778,3.4726,3.4734,3.4755,3.4751,3.4809,3.4821,3.4814,3.4814,3.4814,0,3.3525,3.3579,3.3709,3.3759,3.3817,3.3897,3.3956,3.4042,3.4099,3.4212,3.4253,3.4347,3.4427,3.4566,3.4651,3.4742,3.4764,3.4778,3.4778,3.4756,3.4764,3.476,3.4766,3.4777,3.4776,3.4776,3.4776,0,3.3544,3.3583,3.3666,3.3762,3.383,3.391,3.3992,3.4029,3.413,3.4191,3.4284,3.4346,3.4468,3.456,3.4661,3.4721,3.4765,3.4775,3.4786,3.4765,3.4733,3.475,3.4721,3.4773,3.4774,3.4774,3.4774,3.4774,3.3544,3.3595,3.3694,3.3783,3.3854,3.3929,3.3986,3.4059,3.4139,3.4245,3.4291,3.4384,3.4478,3.4618,3.4677,3.4751,3.476,3.4776,3.478,3.4782,3.4778,3.4721,3.4769,3.4769,3.4769,3.477,3.477,0,3.3566,3.3633,3.3714,3.3827,3.3896,3.3933,3.4025,3.408,3.4162,3.4246,3.4324,3.443,3.452,3.4611,3.4706,3.4747,3.4769,3.4769,3.4766,3.4779,3.4764,3.4745,3.4749,3.4749,3.4749,3.4749,3.4749,3.4749,3.3585,3.3674,3.3725,3.3849,3.3915,3.4008,3.4058,3.4126,3.4194,3.431,3.4385,3.4445,3.4532,3.4633,3.4716,3.4741,3.4773,3.4766,3.4796,3.478,3.4781,3.4782,3.4764,3.4772,3.4772,3.4806,3.4806,3.4806]}]]